Weather in Suadag

Russia / Republic of North Ossetia — Alania     43°02′27″N   44°16′44″E
temp.,
°C
wind,
m/s
gust,
m/s
humid.,
%
clouds,
%
prec.,
mm/h
press.,
hPa
HPBL,
m
3 march, wed
wed300:00−1ssw12550 0.0 102661
03:00−2sw12540 0.0 102560
06:00−4ssw12580 0.0 102333
09:00+1w144547 0.0 1021368
12:00+2nnw335798 0.0 1019784
15:00+1nnw327088 0.0 1019699
18:00−1n2385100 0.6 1022163
21:00−3sw1495100 4.9 1025253
4 march, thu
thu400:00−3s2292100 2.8 1026158
03:00−5sse1283100 3.1 102823
06:00−6sse128082 0.0 102922
09:00−3ne227861 0.0 1028383
12:000ne228239 0.0 1026460
15:00+1ne227742 0.0 1024539
18:00−2ese117943 0.0 102551
21:00−3ssw226222 0.0 102628
5 march, fri
fri500:00−3ssw22590 0.0 102527
03:00−3ssw11570 0.0 102324
06:00−3ssw12560 0.0 102223
09:00+1nne11570 0.0 1021134
12:00+4nne21560 0.0 1019307
15:00+5n11550 0.0 1018345
18:00+1sse11680 0.0 102022
21:00+1ssw22530 0.0 102227
6 march, sat
sat600:00+1ssw33440 0.0 102135
03:00+1ssw33390 0.0 102144
06:00+1ssw333936 0.0 102147
09:00+7sw124238 0.0 1019110
12:00+10nne12380 0.0 1016411
15:00+10nne123817 0.0 1015523
18:00+5ssw3348100 0.0 101541
21:00+4ssw4443100 0.0 101771
7 march, sun
sun700:00+3ssw3350100 0.0 101650
03:00+1sw225976 0.0 101727
06:00−1wsw018139 0.0 101921
09:00−4ssw239369 5.0 1020169
12:00−1nne3389100 1.1 1020514
15:00−2n3495100 3.2 1021411
18:00−4n2398100 2.3 1023211
21:00−5n2297100 4.9 1025170